SCP
0 0 -0 0 0 0 0 0 0 0 0 0 0 0 0 0 0 0 0 0 0 0 0 0 0 -0 -0 0 0 0 0 0 0 0 0 0 0 0 0 -0 -0 -0 -0 -0 0 0 0
-0 -0 -0 -0 0 -0 0 0 0 0 0 0 0 0 0 0 0 0 0 0 0 0 0 0 -0 -0 -0 0 0 0 0 0 0 0 0 0 0 0 0 0 -0 -0 -0 0 -0 0 0
0 0 0 0 0 0 0 0 0 0 0 0 0 0 0 0 0 0 0 0 0 0 0 0 -0 -0 0 0 0 0 0 0 0 0 0 0 0 0 0 0 0 0 -0 -0 -0 -0 0
0 0 0 0 0 0 0 0 0 0 0 0 0 0 0 0 0 0 0 0 0 0 0 -0 -0 -0 0 0 0 0 0 0 0 0 0 0 0 0 0 0 0 0 0 -0 0 0 -0
0 0 0 0 0 0 0 0 0 0 0 0 0 0 0 0 0 0 0 0 0 0 -0 0 0 0 0 0 0 0 0 0 0 0 0 0 0 0 0 0 0 0 0 0 0 -0 0
0 0 0 0 0 0 0 0 0 0 0 0 0 0 0 0 0 0 0 0 0 0 0 0 0 0 0 0 0 0 0 0 0 0 0 0 0 0 0 0 0 0 0 0 0 0 0
0 0 0 -0 0 0 0 0 0 0 0 0 0 0 0 0 0 0 -0 0 0 0 0 0 0 0 0 0 0 0 0 0 0 0 0 0 0 0 0 0 0 0 0 0 0 0 0
0 0 0 0 -0 0 0 0 0 0 0 0 0 0 0 0 0 0 0 0 0 0 -0 0 0 0 0 0 0 0 0 0 0 0 0 0 0 0 0 0 0 0 0 0 0 0 0
0 0 0 0 0 0 0 0 0 0 0 0 0 0 0 0 0 0 0 0 0 0 -0 -0 0 0 0 0 0 0 0 0 0 0 0 0 0 0 0 0 0 0 0 0 0 0 0
0 0 0 0 0 0 0 0 0 0 0 0 0 0 0 0 0 0 0 0 0 0 0 -0 0 0 0 0 0 0 0 0 0 0 0 0 0 0 0 0 0 0 0 0 0 0 0
0 0 0 0 0 0 0 0 0 0 0 0 0 0 0 0 0 0 0 0 0 0 0 0 0 0 0 0 0 0 0 0 0 0 0 0 0 0 0 0 0 0 0 0 0 0 0
0 0 0 0 0 0 0 0 0 0 0 0 0 0 0 0 0 -0 0 0 0 0 0 0 0 0 0 0 0 0 0 0 0 0 0 0 0 0 0 0 0 0 0 0 0 0 0
0 0 0 0 0 0 0 0 0 0 0 0 0 0 0 0 0 0 0 0 0 0 0 0 0 0 0 0 0 0 0 0 0 0 0 0 0 0 0 0 0 0 0 0 0 0 0
0 0 0 0 0 0 0 0 0 0 0 0 0 0 0 0 -0 0 0 0 0 0 0 0 0 0 0 0 0 0 0 0 0 0 0 0 0 0 0 0 0 0 0 0 0 0 0
0 0 0 0 0 0 0 0 0 0 0 0 0 0 0 0 -0 0 0 0 0 0 0 0 0 0 0 0 0 0 0 0 0 0 0 0 0 0 0 0 0 0 0 0 0 0 0
0 0 0 0 0 0 0 0 0 0 0 0 0 0 -0 -0 0 0 0 0 0 0 0 0 0 0 0 0 0 0 0 0 0 0 0 0 0 0 0 0 0 0 0 0 0 0 0
0 0 0 0 0 0 0 0 0 0 0 0 0 0 0 0 0 0 0 0 0 -0 0 0 0 0 0 0 0 0 0 0 -0 0 0 0 0 0 0 0 0 0 0 0 0 0 0
0 0 0 0 0 0 0 0 0 0 0 0 0 0 0 0 0 0 0 0 0 -0 0 0 0 0 0 0 0 0 0 0 -0 0 0 0 0 0 0 0 0 0 0 0 0 0 0
0 0 0 0 0 0 0 0 0 0 0 0 0 0 0 0 0 0 0 0 0 -0 -0 0 0 0 0 0 0 0 -0 -0 0 0 0 0 0 0 0 0 0 0 0 0 0 0 0
0 0 0 0 0 -0 0 0 0 0 0 0 0 0 0 0 0 0 0 0 -0 -0 -0 0 0 0 0 0 0 -0 -0 0 0 0 0 0 0 0 0 0 0 0 0 0 0 0 0
0 0 0 -0 -0 -0 -0 0 0 0 -0 -0 0 0 0 0 0 0 0 0 -0 -0 -0 0 0 0 0 0 0 0 0 0 0 0 0 0 0 0 0 0 0 0 0 0 0 0 0
0 0 -0 -0 0 -0 -0 0 0 -0 -0 -0 0 -0 0 0 0 0 0 0 -0 -0 -0 0 0 0 0 0 0 0 0 0 0 0 0 0 0 0 0 0 0 0 0 0 0 0 0
0 0 -0 -0 -0 -0 0 0 -0 -0 -0 0 0 -0 0 0 0 0 0 0 0 0 0 0 0 0 0 0 0 0 0 0 0 0 0 0 0 0 0 0 0 0 0 0 0 0 0
0 0 0 -0 -0 -0 0 -0 -0 -0 0 -0 -0 0 0 0 0 0 0 0 0 0 0 0 0 0 0 0 0 0 0 0 0 0 0 0 0 0 0 0 0 0 0 0 0 0 0
0 0 0 -0 -0 -0 -0 -0 -0 0 0 -0 0 -0 0 0 0 0 0 0 0 0 0 0 0 0 0 0 0 0 0 0 0 0 0 0 0 0 0 0 0 0 0 0 0 0 0
0 0 0 -0 -0 -0 -0 -0 -0 0 0 0 0 -0 0 0 0 0 0 -0 0 -0 0 0 0 0 0 0 0 0 0 0 0 0 0 0 0 0 0 0 0 0 0 0 0 0 0
-0 -0 -0 0 -0 0 -0 -0 -0 0 -0 0 0 0 0 0 0 0 0 0 0 0 0 0 0 0 0 0 0 0 0 0 0 0 0 0 0 0 0 0 0 0 0 0 0 0 0
-0 -0 0 0 0 -0 -0 -0 0 0 -0 0 0 0 0 0 0 0 0 0 0 0 0 0 0 0 0 0 0 0 0 0 0 0 0 0 0 0 0 0 0 0 0 0 0 0 0
-0 0 0 0 -0 -0 -0 0 0 -0 -0 0 0 0 0 0 0 0 0 0 0 0 0 0 0 0 0 0 0 0 0 0 0 0 0 0 0 0 0 0 0 0 0 0 0 0 0
Wind_Speed_500mb
42 41 40 40 41 41 41 40 42 43 44 46 45 44 43 44 43 41 42 41 40 41 44 48 53 60 53 27 25 15 12 11 10 23 31 34 28 14 8 8 3 8 9 14 39 47 49
44 44 44 45 45 43 43 43 43 43 43 44 47 48 46 47 46 45 44 43 42 42 45 49 52 56 44 16 10 12 10 13 11 22 35 32 20 17 8 8 9 9 9 33 38 48 15
49 51 47 46 45 48 48 46 45 45 44 43 44 45 47 48 48 48 48 46 43 42 45 48 51 48 46 46 23 18 9 13 12 24 36 30 14 4 4 8 3 8 11 17 9 7 5
54 59 56 55 52 49 48 49 48 47 46 45 44 44 44 46 48 49 49 48 44 42 46 47 46 35 31 29 25 23 14 14 13 26 29 12 10 15 9 9 11 7 9 7 8 2 10
39 45 50 56 57 52 50 48 48 48 48 46 46 44 43 44 46 47 49 48 43 42 43 45 30 19 26 13 14 25 22 20 16 25 27 18 19 7 6 10 9 12 4 6 17 9 6
35 38 40 42 46 55 56 53 48 47 48 46 44 43 44 43 43 45 47 44 37 35 18 16 12 12 28 4 2 11 28 19 12 15 17 12 8 4 7 8 10 8 4 6 10 7 9
33 34 35 38 41 44 50 56 56 51 47 47 45 43 41 41 40 38 41 34 16 10 12 25 39 36 58 34 29 13 29 28 29 11 6 1 7 14 13 11 11 4 2 7 12 8 7
34 36 36 36 40 42 44 47 56 54 51 46 44 42 40 39 38 33 31 25 13 23 33 47 55 62 70 64 22 20 24 23 14 12 2 6 14 12 7 7 6 5 4 12 16 10 4
35 38 37 37 39 41 44 44 45 53 52 47 42 40 38 38 35 32 35 31 22 44 14 36 47 45 64 39 32 46 8 40 10 12 12 14 12 17 12 7 7 6 9 11 16 13 8
37 38 38 40 40 37 39 43 43 44 52 48 44 39 35 34 29 34 34 18 16 20 7 15 12 20 36 31 13 49 44 25 7 20 11 10 18 11 9 12 15 9 19 19 11 6 8
39 40 39 39 39 38 37 36 40 40 41 52 42 39 34 30 21 22 15 16 24 10 8 7 9 6 37 43 11 31 37 30 17 13 13 17 3 4 6 17 14 22 8 14 10 13 6
39 41 42 41 38 35 36 36 34 37 35 48 42 30 36 33 42 39 32 24 10 8 15 12 14 13 14 18 13 22 21 39 27 11 4 16 5 5 15 11 26 2 10 12 8 7 7
44 45 45 43 41 39 36 35 32 32 33 36 47 26 38 36 36 26 14 14 5 9 10 10 9 11 16 16 23 10 15 12 13 11 9 12 10 13 14 7 4 12 12 7 8 9 9
45 47 48 47 45 41 38 34 30 31 32 34 43 35 44 47 43 31 17 5 10 16 18 13 10 8 13 10 15 13 13 14 8 10 7 11 10 11 7 16 15 3 15 12 9 7 7
46 50 50 48 45 42 41 41 37 37 38 33 32 45 46 52 39 27 7 6 17 11 10 13 20 6 5 8 14 9 16 14 16 20 13 10 9 6 7 7 15 7 6 8 15 6 5
46 51 51 45 43 40 39 41 43 37 35 38 33 46 58 41 30 22 5 9 10 7 15 8 5 10 17 15 14 29 17 12 11 19 15 10 2 4 9 9 10 11 13 8 7 8 5
50 52 52 46 43 40 39 41 39 39 33 34 28 14 20 25 23 29 9 12 9 19 23 8 8 10 10 12 17 14 20 9 30 16 22 11 7 11 5 5 14 5 5 13 10 9 10
51 53 51 44 43 40 38 37 29 20 30 26 26 7 12 42 17 11 7 9 12 26 19 11 10 14 10 8 13 15 22 23 44 29 20 12 10 5 4 12 4 10 7 10 11 7 5
52 55 49 40 39 36 31 23 12 21 29 43 18 12 16 67 9 9 7 16 15 6 5 10 13 3 11 12 10 14 17 6 30 17 18 15 1 5 11 11 13 12 6 7 11 7 3
51 51 45 37 32 27 16 7 9 16 23 37 9 3 6 47 35 13 9 15 15 16 32 33 30 29 26 12 9 10 11 8 26 18 34 26 8 14 13 12 8 10 4 7 9 9 9
51 49 42 33 22 15 2 10 11 20 29 31 17 10 14 8 20 12 17 12 24 14 25 39 13 21 18 11 4 7 5 9 13 18 11 11 9 8 5 8 19 10 11 10 6 12 9
52 47 38 30 19 8 3 7 8 26 44 33 8 4 11 26 47 21 15 13 20 30 19 31 19 28 16 14 8 7 12 7 9 9 9 7 5 6 11 14 24 21 16 29 32 24 20
54 47 37 32 18 13 10 14 14 43 52 21 10 25 12 9 10 27 25 12 23 19 20 56 39 20 18 17 19 9 18 18 14 13 7 9 10 8 3 4 11 11 11 9 11 11 10
53 46 38 30 19 17 15 16 17 42 52 27 15 17 9 4 4 21 22 24 23 31 29 43 48 23 14 51 41 38 54 45 37 20 6 12 9 6 6 6 6 1 10 16 24 11 15
45 39 33 21 21 21 18 13 23 43 44 39 27 22 15 7 9 10 4 2 14 32 27 33 72 41 43 2 9 13 11 15 12 15 15 11 10 9 9 8 4 8 8 8 2 1 2
45 37 27 18 23 19 19 14 34 55 27 27 31 13 14 11 9 9 3 5 3 5 10 28 5 44 17 6 7 7 6 10 4 6 12 16 15 10 6 11 13 5 10 10 4 2 10
42 29 9 22 24 24 23 34 37 42 28 32 20 17 14 16 13 12 4 3 5 9 6 10 20 4 4 4 8 6 4 9 7 11 5 8 8 9 5 7 4 5 7 8 7 9 21
38 19 13 24 25 29 35 46 36 25 23 20 10 22 23 14 15 15 21 12 7 5 3 13 5 8 8 8 6 3 6 2 9 5 6 8 10 4 5 8 6 3 9 12 16 35 29
28 11 18 26 25 27 36 47 29 23 21 13 15 31 9 9 7 12 16 25 25 22 11 14 4 3 4 8 5 6 6 6 7 5 7 4 9 12 6 8 2 7 20 38 37 42 31
Wind_Direction_500mb
279 277 277 278 280 282 282 280 277 276 276 280 284 286 289 292 296 298 300 304 309 314 319 323 324 325 329 317 283 299 323 302 236 196 185 169 169 169 186 203 209 197 259 290 302 306 301
278 277 277 276 276 277 279 280 280 279 277 276 279 284 286 289 292 295 295 299 304 311 314 316 317 317 314 299 303 313 292 289 251 195 178 173 185 195 228 222 168 224 274 296 305 309 279
280 277 275 275 273 270 270 272 275 277 279 277 276 277 282 286 290 293 293 296 300 309 311 309 312 307 296 277 272 280 274 285 262 204 181 191 185 232 354 306 290 280 319 321 289 350 65
278 280 280 277 274 275 274 269 269 273 276 277 277 278 281 284 287 289 291 294 298 307 305 306 304 295 279 285 270 222 234 260 225 194 186 202 248 288 221 253 343 3 59 6 272 84 156
293 284 279 276 273 272 270 274 273 271 272 275 277 277 278 282 285 289 290 294 299 303 299 300 286 273 266 262 231 231 239 244 219 198 213 239 294 259 154 96 12 4 223 251 314 105 99
313 307 295 285 277 270 269 268 272 273 271 272 274 276 278 279 283 289 291 296 305 296 274 283 254 279 254 236 222 275 218 211 196 214 255 233 189 103 36 91 210 189 219 292 258 269 122
320 318 309 298 291 283 272 264 265 270 271 270 271 274 276 278 279 287 292 312 316 288 279 287 273 263 279 282 288 247 215 215 231 284 199 127 88 218 222 176 178 141 215 265 277 255 346
322 320 313 305 295 288 279 274 263 262 266 269 268 272 276 274 276 278 283 287 48 341 293 283 271 267 261 267 287 235 217 195 170 212 138 360 244 200 201 159 177 161 261 273 286 301 109
326 326 321 315 305 292 282 276 270 262 256 263 268 267 273 272 272 268 264 270 295 332 252 287 257 245 243 236 223 249 222 209 161 160 200 170 238 112 160 217 210 219 202 245 218 349 295
328 327 328 325 317 307 292 279 272 268 255 254 263 266 269 270 274 257 262 246 305 329 342 271 234 241 199 189 235 239 238 211 177 189 172 223 259 235 167 230 159 259 203 241 244 92 235
326 323 321 325 329 316 308 294 277 270 262 245 252 264 262 260 242 253 214 204 328 169 320 231 214 230 171 169 172 207 215 207 174 176 122 235 188 145 176 223 148 235 166 219 197 158 120
326 322 317 316 316 321 317 307 291 275 270 241 246 261 255 259 253 258 258 282 311 60 247 298 180 160 146 179 180 150 169 205 214 148 211 232 246 237 213 262 189 57 114 46 67 101 56
334 330 323 314 306 305 308 310 297 285 269 255 240 253 250 249 258 255 283 297 79 183 309 274 226 165 166 173 184 160 152 157 155 146 253 334 260 258 216 240 74 99 71 9 11 16 202
330 330 323 319 311 299 296 302 288 291 276 261 242 237 249 243 247 247 300 67 187 201 240 305 332 132 187 126 207 157 128 190 216 126 131 174 316 194 212 177 180 165 138 144 172 184 255
326 328 325 321 313 302 293 290 285 280 272 259 246 231 243 241 245 240 203 191 204 202 271 330 320 166 202 175 138 143 171 190 190 184 159 152 262 302 213 184 139 183 92 168 103 19 63
326 326 326 321 315 305 296 288 290 284 254 243 240 229 246 250 249 199 134 239 237 262 9 349 301 346 187 198 160 173 170 198 217 181 152 210 257 247 298 110 34 139 155 79 18 128 202
328 327 328 322 319 309 303 296 287 277 241 226 218 233 240 244 173 173 204 222 290 285 14 332 320 321 298 176 167 177 189 230 196 187 163 146 115 284 32 23 167 69 97 54 114 123 157
330 329 326 324 322 316 308 302 294 241 212 210 192 209 221 170 169 186 177 180 235 278 317 294 269 229 242 299 180 182 197 206 197 144 157 193 144 175 169 307 267 108 136 124 123 217 92
330 331 326 328 328 325 314 313 282 207 203 189 170 201 180 169 175 213 189 217 253 295 301 301 318 303 6 320 293 174 203 249 174 143 157 179 79 63 4 354 7 62 54 104 109 82 113
329 330 328 330 331 327 322 334 224 197 196 198 173 189 144 206 243 184 143 217 220 239 263 266 269 286 291 285 202 197 158 28 152 164 159 129 113 152 182 192 171 96 39 105 128 105 138
328 325 325 327 324 324 297 351 198 178 183 176 198 201 192 189 236 226 183 211 211 235 245 282 285 231 238 277 274 174 133 105 52 134 81 109 118 134 102 163 80 66 52 26 72 134 119
325 318 318 317 300 308 172 294 245 185 183 184 257 223 168 274 195 195 204 233 188 217 251 273 241 273 242 226 249 174 125 91 154 44 96 20 153 110 47 58 102 69 22 79 82 85 88
325 314 302 302 273 269 299 290 299 188 184 208 304 302 238 245 161 179 214 192 219 234 263 243 257 279 278 248 255 131 103 110 127 124 107 83 121 85 116 87 103 36 350 47 87 28 128
326 318 301 286 246 223 234 277 245 187 191 206 314 321 292 278 239 182 206 221 242 248 250 290 295 223 232 121 102 84 73 67 59 29 84 118 89 80 139 32 104 182 66 83 104 66 81
324 322 312 274 219 212 211 236 220 179 189 223 279 329 357 292 241 126 30 275 254 250 242 250 270 250 156 222 68 61 354 40 12 25 25 72 104 73 109 71 80 286 230 183 116 203 239
332 324 303 241 193 202 194 197 189 185 209 253 273 358 328 333 360 23 284 336 300 307 324 220 240 166 167 128 101 107 136 144 126 54 11 60 69 105 115 121 187 218 119 103 124 236 166
340 336 290 180 166 173 175 164 160 190 221 247 306 321 218 222 66 55 124 152 19 282 245 295 340 13 51 39 73 104 97 172 121 115 127 40 26 104 92 113 247 189 140 134 124 224 136
353 353 141 158 159 170 167 158 152 163 196 237 19 359 360 360 28 30 47 36 19 8 132 322 36 338 44 72 104 127 100 104 84 72 103 128 121 119 96 94 211 100 121 176 142 134 140
354 6 162 161 165 166 171 179 173 180 204 194 358 3 360 293 323 350 21 39 28 17 350 28 103 24 54 97 71 116 80 65 148 134 39 97 175 154 136 192 139 122 126 131 144 138 141
Wind_Speed_850mb
42 41 40 40 41 41 41 40 42 43 44 46 45 44 43 44 43 41 42 41 40 41 44 48 53 60 53 27 25 15 12 11 10 23 31 34 28 14 8 8 3 8 9 14 39 47 49
44 44 44 45 45 43 43 43 43 43 43 44 47 48 46 47 46 45 44 43 42 42 45 49 52 56 44 16 10 12 10 13 11 22 35 32 20 17 8 8 9 9 9 33 38 48 15
49 51 47 46 45 48 48 46 45 45 44 43 44 45 47 48 48 48 48 46 43 42 45 48 51 48 46 46 23 18 9 13 12 24 36 30 14 4 4 8 3 8 11 17 9 7 5
54 59 56 55 52 49 48 49 48 47 46 45 44 44 44 46 48 49 49 48 44 42 46 47 46 35 31 29 25 23 14 14 13 26 29 12 10 15 9 9 11 7 9 7 8 2 10
39 45 50 56 57 52 50 48 48 48 48 46 46 44 43 44 46 47 49 48 43 42 43 45 30 19 26 13 14 25 22 20 16 25 27 18 19 7 6 10 9 12 4 6 17 9 6
35 38 40 42 46 55 56 53 48 47 48 46 44 43 44 43 43 45 47 44 37 35 18 16 12 12 28 4 2 11 28 19 12 15 17 12 8 4 7 8 10 8 4 6 10 7 9
33 34 35 38 41 44 50 56 56 51 47 47 45 43 41 41 40 38 41 34 16 10 12 25 39 36 58 34 29 13 29 28 29 11 6 1 7 14 13 11 11 4 2 7 12 8 7
34 36 36 36 40 42 44 47 56 54 51 46 44 42 40 39 38 33 31 25 13 23 33 47 55 62 70 64 22 20 24 23 14 12 2 6 14 12 7 7 6 5 4 12 16 10 4
35 38 37 37 39 41 44 44 45 53 52 47 42 40 38 38 35 32 35 31 22 44 14 36 47 45 64 39 32 46 8 40 10 12 12 14 12 17 12 7 7 6 9 11 16 13 8
37 38 38 40 40 37 39 43 43 44 52 48 44 39 35 34 29 34 34 18 16 20 7 15 12 20 36 31 13 49 44 25 7 20 11 10 18 11 9 12 15 9 19 19 11 6 8
39 40 39 39 39 38 37 36 40 40 41 52 42 39 34 30 21 22 15 16 24 10 8 7 9 6 37 43 11 31 37 30 17 13 13 17 3 4 6 17 14 22 8 14 10 13 6
39 41 42 41 38 35 36 36 34 37 35 48 42 30 36 33 42 39 32 24 10 8 15 12 14 13 14 18 13 22 21 39 27 11 4 16 5 5 15 11 26 2 10 12 8 7 7
44 45 45 43 41 39 36 35 32 32 33 36 47 26 38 36 36 26 14 14 5 9 10 10 9 11 16 16 23 10 15 12 13 11 9 12 10 13 14 7 4 12 12 7 8 9 9
45 47 48 47 45 41 38 34 30 31 32 34 43 35 44 47 43 31 17 5 10 16 18 13 10 8 13 10 15 13 13 14 8 10 7 11 10 11 7 16 15 3 15 12 9 7 7
46 50 50 48 45 42 41 41 37 37 38 33 32 45 46 52 39 27 7 6 17 11 10 13 20 6 5 8 14 9 16 14 16 20 13 10 9 6 7 7 15 7 6 8 15 6 5
46 51 51 45 43 40 39 41 43 37 35 38 33 46 58 41 30 22 5 9 10 7 15 8 5 10 17 15 14 29 17 12 11 19 15 10 2 4 9 9 10 11 13 8 7 8 5
50 52 52 46 43 40 39 41 39 39 33 34 28 14 20 25 23 29 9 12 9 19 23 8 8 10 10 12 17 14 20 9 30 16 22 11 7 11 5 5 14 5 5 13 10 9 10
51 53 51 44 43 40 38 37 29 20 30 26 26 7 12 42 17 11 7 9 12 26 19 11 10 14 10 8 13 15 22 23 44 29 20 12 10 5 4 12 4 10 7 10 11 7 5
52 55 49 40 39 36 31 23 12 21 29 43 18 12 16 67 9 9 7 16 15 6 5 10 13 3 11 12 10 14 17 6 30 17 18 15 1 5 11 11 13 12 6 7 11 7 3
51 51 45 37 32 27 16 7 9 16 23 37 9 3 6 47 35 13 9 15 15 16 32 33 30 29 26 12 9 10 11 8 26 18 34 26 8 14 13 12 8 10 4 7 9 9 9
51 49 42 33 22 15 2 10 11 20 29 31 17 10 14 8 20 12 17 12 24 14 25 39 13 21 18 11 4 7 5 9 13 18 11 11 9 8 5 8 19 10 11 10 6 12 9
52 47 38 30 19 8 3 7 8 26 44 33 8 4 11 26 47 21 15 13 20 30 19 31 19 28 16 14 8 7 12 7 9 9 9 7 5 6 11 14 24 21 16 29 32 24 20
54 47 37 32 18 13 10 14 14 43 52 21 10 25 12 9 10 27 25 12 23 19 20 56 39 20 18 17 19 9 18 18 14 13 7 9 10 8 3 4 11 11 11 9 11 11 10
53 46 38 30 19 17 15 16 17 42 52 27 15 17 9 4 4 21 22 24 23 31 29 43 48 23 14 51 41 38 54 45 37 20 6 12 9 6 6 6 6 1 10 16 24 11 15
45 39 33 21 21 21 18 13 23 43 44 39 27 22 15 7 9 10 4 2 14 32 27 33 72 41 43 2 9 13 11 15 12 15 15 11 10 9 9 8 4 8 8 8 2 1 2
45 37 27 18 23 19 19 14 34 55 27 27 31 13 14 11 9 9 3 5 3 5 10 28 5 44 17 6 7 7 6 10 4 6 12 16 15 10 6 11 13 5 10 10 4 2 10
42 29 9 22 24 24 23 34 37 42 28 32 20 17 14 16 13 12 4 3 5 9 6 10 20 4 4 4 8 6 4 9 7 11 5 8 8 9 5 7 4 5 7 8 7 9 21
38 19 13 24 25 29 35 46 36 25 23 20 10 22 23 14 15 15 21 12 7 5 3 13 5 8 8 8 6 3 6 2 9 5 6 8 10 4 5 8 6 3 9 12 16 35 29
28 11 18 26 25 27 36 47 29 23 21 13 15 31 9 9 7 12 16 25 25 22 11 14 4 3 4 8 5 6 6 6 7 5 7 4 9 12 6 8 2 7 20 38 37 42 31
Wind_Direction_850mb
279 277 277 278 280 282 282 280 277 276 276 280 284 286 289 292 296 298 300 304 309 314 319 323 324 325 329 317 283 299 323 302 236 196 185 169 169 169 186 203 209 197 259 290 302 306 301
278 277 277 276 276 277 279 280 280 279 277 276 279 284 286 289 292 295 295 299 304 311 314 316 317 317 314 299 303 313 292 289 251 195 178 173 185 195 228 222 168 224 274 296 305 309 279
280 277 275 275 273 270 270 272 275 277 279 277 276 277 282 286 290 293 293 296 300 309 311 309 312 307 296 277 272 280 274 285 262 204 181 191 185 232 354 306 290 280 319 321 289 350 65
278 280 280 277 274 275 274 269 269 273 276 277 277 278 281 284 287 289 291 294 298 307 305 306 304 295 279 285 270 222 234 260 225 194 186 202 248 288 221 253 343 3 59 6 272 84 156
293 284 279 276 273 272 270 274 273 271 272 275 277 277 278 282 285 289 290 294 299 303 299 300 286 273 266 262 231 231 239 244 219 198 213 239 294 259 154 96 12 4 223 251 314 105 99
313 307 295 285 277 270 269 268 272 273 271 272 274 276 278 279 283 289 291 296 305 296 274 283 254 279 254 236 222 275 218 211 196 214 255 233 189 103 36 91 210 189 219 292 258 269 122
320 318 309 298 291 283 272 264 265 270 271 270 271 274 276 278 279 287 292 312 316 288 279 287 273 263 279 282 288 247 215 215 231 284 199 127 88 218 222 176 178 141 215 265 277 255 346
322 320 313 305 295 288 279 274 263 262 266 269 268 272 276 274 276 278 283 287 48 341 293 283 271 267 261 267 287 235 217 195 170 212 138 360 244 200 201 159 177 161 261 273 286 301 109
326 326 321 315 305 292 282 276 270 262 256 263 268 267 273 272 272 268 264 270 295 332 252 287 257 245 243 236 223 249 222 209 161 160 200 170 238 112 160 217 210 219 202 245 218 349 295
328 327 328 325 317 307 292 279 272 268 255 254 263 266 269 270 274 257 262 246 305 329 342 271 234 241 199 189 235 239 238 211 177 189 172 223 259 235 167 230 159 259 203 241 244 92 235
326 323 321 325 329 316 308 294 277 270 262 245 252 264 262 260 242 253 214 204 328 169 320 231 214 230 171 169 172 207 215 207 174 176 122 235 188 145 176 223 148 235 166 219 197 158 120
326 322 317 316 316 321 317 307 291 275 270 241 246 261 255 259 253 258 258 282 311 60 247 298 180 160 146 179 180 150 169 205 214 148 211 232 246 237 213 262 189 57 114 46 67 101 56
334 330 323 314 306 305 308 310 297 285 269 255 240 253 250 249 258 255 283 297 79 183 309 274 226 165 166 173 184 160 152 157 155 146 253 334 260 258 216 240 74 99 71 9 11 16 202
330 330 323 319 311 299 296 302 288 291 276 261 242 237 249 243 247 247 300 67 187 201 240 305 332 132 187 126 207 157 128 190 216 126 131 174 316 194 212 177 180 165 138 144 172 184 255
326 328 325 321 313 302 293 290 285 280 272 259 246 231 243 241 245 240 203 191 204 202 271 330 320 166 202 175 138 143 171 190 190 184 159 152 262 302 213 184 139 183 92 168 103 19 63
326 326 326 321 315 305 296 288 290 284 254 243 240 229 246 250 249 199 134 239 237 262 9 349 301 346 187 198 160 173 170 198 217 181 152 210 257 247 298 110 34 139 155 79 18 128 202
328 327 328 322 319 309 303 296 287 277 241 226 218 233 240 244 173 173 204 222 290 285 14 332 320 321 298 176 167 177 189 230 196 187 163 146 115 284 32 23 167 69 97 54 114 123 157
330 329 326 324 322 316 308 302 294 241 212 210 192 209 221 170 169 186 177 180 235 278 317 294 269 229 242 299 180 182 197 206 197 144 157 193 144 175 169 307 267 108 136 124 123 217 92
330 331 326 328 328 325 314 313 282 207 203 189 170 201 180 169 175 213 189 217 253 295 301 301 318 303 6 320 293 174 203 249 174 143 157 179 79 63 4 354 7 62 54 104 109 82 113
329 330 328 330 331 327 322 334 224 197 196 198 173 189 144 206 243 184 143 217 220 239 263 266 269 286 291 285 202 197 158 28 152 164 159 129 113 152 182 192 171 96 39 105 128 105 138
328 325 325 327 324 324 297 351 198 178 183 176 198 201 192 189 236 226 183 211 211 235 245 282 285 231 238 277 274 174 133 105 52 134 81 109 118 134 102 163 80 66 52 26 72 134 119
325 318 318 317 300 308 172 294 245 185 183 184 257 223 168 274 195 195 204 233 188 217 251 273 241 273 242 226 249 174 125 91 154 44 96 20 153 110 47 58 102 69 22 79 82 85 88
325 314 302 302 273 269 299 290 299 188 184 208 304 302 238 245 161 179 214 192 219 234 263 243 257 279 278 248 255 131 103 110 127 124 107 83 121 85 116 87 103 36 350 47 87 28 128
326 318 301 286 246 223 234 277 245 187 191 206 314 321 292 278 239 182 206 221 242 248 250 290 295 223 232 121 102 84 73 67 59 29 84 118 89 80 139 32 104 182 66 83 104 66 81
324 322 312 274 219 212 211 236 220 179 189 223 279 329 357 292 241 126 30 275 254 250 242 250 270 250 156 222 68 61 354 40 12 25 25 72 104 73 109 71 80 286 230 183 116 203 239
332 324 303 241 193 202 194 197 189 185 209 253 273 358 328 333 360 23 284 336 300 307 324 220 240 166 167 128 101 107 136 144 126 54 11 60 69 105 115 121 187 218 119 103 124 236 166
340 336 290 180 166 173 175 164 160 190 221 247 306 321 218 222 66 55 124 152 19 282 245 295 340 13 51 39 73 104 97 172 121 115 127 40 26 104 92 113 247 189 140 134 124 224 136
353 353 141 158 159 170 167 158 152 163 196 237 19 359 360 360 28 30 47 36 19 8 132 322 36 338 44 72 104 127 100 104 84 72 103 128 121 119 96 94 211 100 121 176 142 134 140
354 6 162 161 165 166 171 179 173 180 204 194 358 3 360 293 323 350 21 39 28 17 350 28 103 24 54 97 71 116 80 65 148 134 39 97 175 154 136 192 139 122 126 131 144 138 141